Location: Sedan
(39.2354°N, 78.5718°W)
Time: 17:44:41
(UTC+00:00)

deb Agena D - Visible Passes

Search period start: 11 August 2022 00:00
Search period end: 21 August 2022 00:00
Orbit: 766 x 820 km, 70.0° (Epoch: 10 August)

Date Brightness Start Highest point End Pass type
(mag) Time Alt. Az. Time Alt. Az. Time Alt. Az.
11 Aug ? 03:47:01 10° NNW 03:51:14 39° NNE 03:51:14 39° NNE visible
11 Aug ? 05:30:42 10° NW 05:32:00 15° WNW 05:32:00 15° WNW visible
12 Aug ? 03:17:26 10° N 03:21:56 32° NE 03:21:56 32° NE visible
12 Aug ? 05:00:29 10° NW 05:02:42 22° WNW 05:02:42 22° WNW visible
13 Aug ? 02:47:57 10° N 02:52:23 24° NE 02:52:40 24° ENE visible
13 Aug ? 04:30:26 10° NW 04:33:26 31° NW 04:33:26 31° NW visible
14 Aug ? 02:18:37 10° N 02:22:22 18° NE 02:23:26 17° ENE visible
14 Aug ? 04:00:29 10° NNW 04:04:13 43° NW 04:04:13 43° NW visible
15 Aug ? 01:49:33 10° NNE 01:52:17 14° NE 01:54:14 12° ENE visible
15 Aug ? 03:30:39 10° NNW 03:35:01 57° NNW 03:35:01 57° NNW visible
16 Aug ? 03:00:53 10° NNW 03:05:51 59° NE 03:05:51 59° NE visible
16 Aug ? 04:45:29 10° WNW 04:46:37 13° WNW 04:46:37 13° WNW visible
17 Aug ? 02:31:12 10° NNW 02:36:30 45° ENE 02:36:43 44° ENE visible
17 Aug ? 04:14:56 10° NW 04:17:30 20° WNW 04:17:30 20° WNW visible
18 Aug ? 02:01:35 10° N 02:06:34 33° ENE 02:07:37 30° E visible
18 Aug ? 03:44:42 10° NW 03:48:24 30° W 03:48:24 30° W visible
19 Aug ? 01:32:06 10° N 01:36:36 25° NE 01:38:34 20° E visible
19 Aug ? 03:14:37 10° NW 03:19:21 46° W 03:19:21 46° W visible
20 Aug ? 01:02:44 10° N 01:06:34 19° NE 01:09:33 13° E visible
20 Aug ? 02:44:40 10° NNW 02:50:10 67° WSW 02:50:20 67° WSW visible
